Temp
12 12 12 12 12 12 12 12 12 13 13 14 14 15 14 15 15 15 16 19 19 19 19 20 21 22 23 23 24 25 22 23 24 25 27 25 25 25 24 25 23 24 23 23 20
11 12 12 12 12 12 12 12 12 13 13 13 14 14 14 14 14 15 17 18 18 18 18 20 22 23 22 23 24 23 22 24 26 27 26 27 25 24 24 24 24 22 20 21 19
12 11 12 12 12 12 12 12 12 12 13 13 13 13 13 14 15 17 18 17 17 18 18 20 21 22 21 22 23 23 21 24 26 27 25 24 25 26 25 23 26 25 21 20 19
11 12 11 11 12 12 12 12 12 12 12 13 13 13 13 14 16 17 18 17 17 17 18 19 21 20 21 21 23 21 23 24 24 25 24 23 24 24 24 24 25 25 23 21 18
10 11 12 11 11 11 12 12 12 12 12 12 13 13 12 14 17 17 17 17 16 16 18 19 20 20 20 22 22 22 23 23 24 24 24 23 22 22 22 24 24 25 24 22 21
10 10 11 12 11 11 11 12 12 12 12 12 12 13 13 14 17 17 17 15 16 17 18 19 19 20 20 21 21 21 21 22 22 23 23 22 21 22 23 24 23 23 23 23 22
10 10 10 11 11 11 11 11 12 12 12 12 12 12 13 15 16 17 16 15 15 16 17 17 17 19 19 19 18 20 19 20 21 22 22 22 20 21 22 22 23 22 23 23 23
9 9 10 11 11 11 11 11 12 12 12 12 12 12 13 15 15 16 16 16 15 15 16 16 15 14 15 15 17 17 18 18 21 22 22 21 19 22 22 22 22 22 23 23 23
9 9 10 10 10 11 11 11 11 11 11 11 11 12 13 15 15 15 16 17 15 15 14 14 15 15 14 14 15 15 16 18 19 22 22 21 19 22 23 22 22 22 22 23 24
8 9 9 10 10 11 11 11 11 11 11 11 12 11 12 14 15 15 16 16 15 13 13 13 13 14 14 15 16 16 15 17 18 20 20 20 20 21 21 21 21 21 22 23 23
8 8 9 9 10 10 10 9 9 9 10 11 12 12 16 15 15 15 16 16 14 13 14 14 14 15 15 16 17 15 16 17 19 20 20 19 19 20 21 21 22 22 22 22 23
8 8 8 9 9 10 9 9 11 12 10 12 13 13 15 15 14 15 16 14 14 13 14 13 13 16 17 16 16 15 15 16 18 18 18 18 19 20 20 21 22 22 22 23 23
7 7 8 8 9 9 8 10 12 12 10 10 12 13 14 15 15 14 15 15 14 14 14 14 16 17 16 16 16 15 15 15 16 17 18 18 18 18 20 21 22 23 23 23 23
7 7 7 8 8 8 8 9 10 12 9 9 9 12 13 14 13 16 15 15 14 14 15 14 16 16 16 16 16 15 17 17 17 15 15 18 16 17 20 21 21 22 22 23 23
7 7 7 7 9 8 9 9 9 9 11 9 11 13 13 13 14 14 16 14 13 14 14 14 15 15 15 16 17 16 17 17 17 16 14 16 15 18 21 20 21 22 21 23 23
6 7 7 7 8 9 9 9 8 9 10 9 10 10 11 12 14 14 14 14 15 14 14 14 16 17 16 16 16 17 15 15 14 14 14 15 15 17 18 19 21 22 23 22 22
6 7 7 7 7 8 8 8 9 9 6 9 10 10 11 11 12 12 12 11 12 12 12 14 15 16 17 15 16 16 15 13 13 13 14 17 16 16 19 20 21 21 21 21 22
6 6 7 7 7 8 8 7 9 9 9 8 11 11 11 12 11 12 12 11 13 14 13 12 12 15 16 15 15 14 14 14 13 15 14 15 15 17 19 21 21 22 21 20 20
6 6 6 6 7 8 7 8 9 10 9 9 11 10 10 11 12 12 12 12 13 14 13 13 13 17 16 16 16 15 13 15 14 13 13 15 16 18 19 20 20 20 20 20 20
5 4 6 6 7 7 6 8 8 10 11 11 10 11 10 10 12 11 11 13 13 14 15 15 14 16 16 16 15 15 14 13 12 13 13 14 14 17 19 20 21 20 19 19 19
6 5 7 6 6 6 7 7 7 11 13 11 11 10 12 11 12 11 12 14 14 14 14 14 14 15 15 15 15 14 14 14 14 11 13 13 15 19 20 21 20 19 19 19 20
5 5 7 6 6 5 6 6 7 8 13 13 12 12 12 12 12 11 12 14 15 15 13 14 13 11 13 15 16 16 15 15 13 13 13 14 14 19 20 21 20 20 21 21 20
3 5 6 7 6 6 5 6 7 7 12 12 12 13 13 12 11 12 13 15 15 14 13 13 11 10 11 13 14 12 14 14 14 14 13 13 15 18 18 18 19 19 20 19 19
3 6 5 5 4 6 7 7 7 9 12 13 13 13 13 12 13 12 13 14 14 15 13 14 13 11 11 13 14 13 13 13 13 12 13 13 14 16 17 17 19 18 18 18 17
2 5 4 5 5 6 7 8 8 8 10 12 12 12 12 11 11 12 13 13 13 13 13 12 8 12 13 13 14 14 13 11 12 13 12 14 14 16 16 14 14 15 17 18 18
5 5 4 6 7 6 7 8 9 7 9 11 12 12 13 11 11 11 13 13 12 12 12 11 8 10 7 11 11 12 12 13 13 12 10 11 12 14 15 15 15 16 17 18 18
7 6 7 6 6 7 8 8 9 10 11 12 13 12 11 12 13 13 14 13 12 12 11 10 8 8 8 10 11 9 11 12 13 13 14 13 14 16 16 15 16 16 17 17 17
Height
779 782 786 789 791 794 796 798 800 802 805 807 809 812 814 815 817 818 818 818 818 819 821 822 821 819 818 816 815 812 828 831 822 817 809 806 810 808 810 809 811 812 814 817 818
774 778 781 785 788 790 794 796 798 800 803 806 809 810 812 815 816 814 814 814 816 818 821 822 820 817 819 815 814 821 828 821 805 801 804 801 805 808 815 815 813 814 816 818 817
771 773 777 780 784 787 790 794 797 799 802 805 807 809 811 815 816 805 809 812 814 818 820 821 820 819 822 816 815 817 826 811 803 798 799 805 808 802 810 820 808 809 811 814 815
765 769 772 776 780 783 787 791 794 797 800 803 806 809 811 814 817 800 803 807 811 815 819 820 821 823 823 823 812 823 812 810 805 800 804 811 806 809 809 810 803 804 806 810 814
760 763 767 771 775 780 784 789 792 795 798 802 805 808 811 810 800 800 802 806 810 814 816 818 819 821 824 817 815 815 811 809 806 803 804 805 813 814 810 802 802 804 805 808 809
755 758 762 766 771 776 781 786 790 793 797 800 804 807 809 804 800 801 802 806 810 813 814 816 816 816 819 817 817 813 813 810 808 806 805 809 810 811 806 800 802 804 804 805 806
749 753 758 762 766 771 777 783 787 791 795 799 802 805 805 794 798 800 802 805 809 812 814 815 817 817 817 821 819 818 824 816 812 808 808 808 815 810 803 800 800 803 802 801 801
744 749 753 757 762 767 773 779 783 789 793 797 801 804 797 796 798 798 800 805 809 812 814 816 819 823 824 828 827 830 828 828 810 808 804 812 817 801 794 797 798 797 797 796 795
738 743 749 754 758 763 769 775 782 787 792 796 800 803 798 793 794 798 800 803 808 812 814 818 821 824 829 833 837 832 831 826 819 805 801 806 809 797 789 793 793 791 790 789 788
732 738 744 750 755 760 766 773 780 787 791 796 797 805 795 790 793 797 800 804 809 813 817 819 821 822 824 827 825 828 834 825 822 808 805 804 799 795 791 791 790 787 785 784 783
726 733 739 745 751 757 766 770 779 785 783 779 780 782 776 787 792 793 797 802 808 812 813 815 819 816 813 817 817 826 827 822 810 803 808 803 800 793 788 785 783 784 781 779 778
720 727 734 740 747 754 760 756 761 767 776 778 779 783 781 784 789 791 796 804 806 808 810 818 815 801 807 814 817 824 826 822 813 807 810 806 795 790 785 778 775 774 773 770 769
714 721 729 737 745 751 753 754 760 765 775 777 777 778 781 783 783 787 790 795 799 806 806 809 797 804 809 812 815 816 822 826 820 812 807 805 796 791 775 772 767 762 760 759 760
707 715 723 734 746 743 748 751 758 762 773 772 778 776 778 781 786 781 784 791 797 798 801 807 796 802 804 808 809 814 807 811 811 819 824 808 806 788 774 763 758 752 752 750 751
701 709 717 726 730 736 740 748 753 765 743 764 766 768 771 775 774 779 780 789 791 792 799 795 795 800 806 801 801 803 801 806 805 812 820 811 819 771 765 763 751 749 744 742 742
694 702 712 722 728 731 739 747 756 747 733 746 748 759 767 768 773 777 779 785 785 792 793 791 786 787 792 794 798 798 805 808 811 817 815 803 807 779 773 757 747 743 737 736 734
690 698 707 715 715 729 736 748 738 721 742 737 736 740 749 762 773 777 779 786 785 797 795 787 789 787 786 794 792 798 807 818 816 815 805 781 800 779 754 746 741 739 737 734 727
686 695 702 708 720 726 735 741 710 724 726 740 733 742 748 755 769 770 774 784 777 777 784 794 798 784 779 788 790 795 803 808 809 801 797 780 786 760 742 734 731 730 729 729 727
686 693 700 706 715 723 730 720 706 703 716 728 731 742 749 754 756 764 765 770 769 770 780 785 784 769 775 779 787 790 804 795 806 805 809 786 774 750 738 732 731 730 729 727 723
682 694 694 703 712 720 718 712 712 700 700 716 730 730 739 746 748 757 763 756 764 763 765 766 777 767 768 775 781 783 792 804 806 801 800 785 779 763 738 732 728 728 727 721 720
682 686 686 699 710 712 709 713 716 702 695 712 713 731 726 735 732 748 748 746 753 760 766 768 774 773 769 773 778 786 789 789 793 800 788 786 769 735 733 727 727 727 725 720 716
679 679 676 692 702 705 706 708 715 709 690 695 702 712 720 727 734 745 746 745 742 750 761 767 775 786 778 769 767 772 777 781 793 784 780 777 767 735 729 721 724 725 720 717 718
679 670 677 684 692 693 703 707 705 711 687 688 697 702 708 724 739 738 741 739 739 749 757 764 780 793 789 780 769 776 775 777 777 777 780 782 760 728 731 729 726 725 719 718 717
676 665 677 686 694 694 689 698 709 702 682 684 690 699 710 720 722 732 736 738 741 745 751 756 764 769 769 761 763 772 770 771 774 779 769 771 761 729 738 737 731 726 723 723 720
668 662 669 677 691 688 689 686 697 696 691 685 697 700 705 723 726 731 733 739 745 748 752 758 782 764 758 760 761 759 763 773 770 765 772 755 756 725 732 741 741 738 726 718 713
664 661 670 672 675 687 686 683 687 693 685 686 690 695 700 706 712 725 727 736 742 747 752 757 778 770 788 770 769 768 762 761 760 763 774 764 761 724 731 736 740 732 723 714 712
656 660 661 669 675 680 674 679 678 684 681 679 680 692 702 704 711 719 721 731 736 742 750 760 776 783 785 770 769 779 758 756 752 749 750 752 735 717 720 733 728 716 717 716 710
Wind_Speed
31 30 27 25 22 21 19 17 17 18 17 15 12 13 10 10 8 8 10 9 7 14 14 12 10 10 8 6 2 5 3 6 11 9 6 7 5 3 4 1 2 4 3 5 23
28 31 30 27 25 22 21 19 17 18 16 16 12 11 12 10 11 17 11 12 12 14 6 10 10 8 5 7 3 4 4 8 10 8 6 5 7 8 2 5 5 4 6 13 19
28 26 31 30 26 25 22 21 18 16 15 15 13 11 9 6 9 12 19 21 12 13 7 10 12 9 8 10 6 4 8 11 10 9 8 7 7 3 5 7 5 7 14 14 18
28 28 27 31 29 26 24 21 19 17 16 12 13 11 11 10 9 5 14 23 24 17 9 9 8 9 5 8 10 12 12 12 11 12 4 7 8 8 8 9 8 6 9 18 10
27 28 27 26 29 28 25 23 21 19 15 13 14 12 10 10 16 6 4 13 14 14 14 11 11 10 13 7 12 14 11 11 14 7 6 3 8 7 10 10 8 6 2 9 11
28 27 27 26 27 29 26 24 21 19 17 15 14 14 9 17 16 9 6 9 11 16 15 15 6 9 7 11 14 6 9 8 13 11 7 8 9 8 7 6 7 10 8 8 9
31 26 27 25 25 27 28 25 22 20 17 16 15 13 13 15 6 17 13 10 15 15 10 4 2 3 1 4 9 6 8 10 12 9 6 6 11 12 11 12 7 10 8 9 10
30 29 27 26 26 25 28 26 23 20 16 16 14 12 7 16 22 9 14 14 10 13 12 9 3 4 3 3 3 2 7 11 7 11 7 8 16 9 9 12 15 12 13 12 12
31 28 29 26 26 25 27 27 22 19 15 13 8 9 8 9 14 18 13 17 14 3 1 7 6 3 3 3 2 6 11 13 15 14 9 14 10 8 6 12 12 10 10 12 15
31 31 27 26 24 25 25 26 20 15 13 10 11 6 7 12 10 19 15 15 6 8 3 4 4 6 6 7 12 5 5 11 15 9 9 17 19 12 9 12 13 10 10 11 14
32 32 30 27 26 24 24 15 7 4 17 9 12 9 4 16 17 18 20 14 10 4 9 6 6 11 16 15 7 5 10 16 14 17 15 14 15 15 15 15 17 15 13 12 13
33 32 31 31 26 24 26 7 19 6 8 17 7 18 7 17 10 14 24 12 10 13 9 6 15 22 9 9 14 13 14 17 14 10 11 11 18 13 17 19 17 15 16 17 16
35 33 32 30 28 24 28 25 29 20 4 11 9 12 11 12 14 15 18 16 13 14 15 15 14 12 14 14 13 13 16 15 13 10 14 15 21 17 23 20 19 20 17 17 18
34 35 34 31 21 26 23 23 25 22 5 8 12 7 11 8 7 15 26 11 8 17 17 13 20 17 11 18 14 17 15 12 10 4 7 3 9 14 12 15 19 23 22 23 20
34 35 35 36 15 24 14 22 23 8 11 17 14 11 13 15 8 10 23 16 16 12 12 12 11 13 16 20 11 19 6 14 11 11 7 19 9 15 5 14 16 11 12 21 20
30 34 35 35 26 24 23 21 20 7 12 13 15 21 19 16 8 9 11 4 6 14 13 16 8 7 16 13 13 4 2 3 3 4 9 19 13 15 15 20 18 14 15 10 14
25 33 37 31 24 23 29 10 9 11 2 5 19 24 28 15 14 15 16 14 10 10 16 19 18 10 8 8 9 15 5 3 4 4 8 21 11 21 15 13 12 10 13 12 11
25 29 36 34 27 29 28 10 17 10 8 4 14 24 21 22 14 16 15 14 16 13 7 12 9 21 14 13 8 8 12 7 5 7 6 8 7 12 17 19 25 20 13 10 9
22 24 23 29 32 33 11 15 8 9 13 12 18 27 9 20 12 15 17 16 17 16 10 11 15 5 13 15 11 8 10 13 14 11 5 3 6 10 12 9 7 8 7 10 10
19 13 21 31 31 26 11 15 8 8 16 20 14 17 16 25 14 18 17 16 13 21 13 3 4 10 10 14 15 18 8 4 5 8 9 8 7 9 6 7 7 9 11 11 9
13 6 22 33 32 10 11 11 5 11 20 18 15 15 14 20 19 20 16 6 23 16 17 3 2 1 3 11 15 11 15 13 4 3 2 3 5 5 10 8 5 6 8 8 6
3 4 36 39 11 5 13 6 8 12 16 7 10 8 17 23 19 15 13 13 17 15 23 15 1 6 11 7 5 13 15 19 10 18 7 6 13 8 17 23 12 9 5 2 2
3 3 28 30 11 5 6 5 1 15 16 7 8 7 13 18 11 10 16 12 12 15 13 12 5 2 1 4 7 6 11 11 13 15 18 13 12 3 8 12 12 12 7 2 4
2 4 4 7 3 5 11 13 6 21 10 5 13 13 18 21 6 12 16 9 8 8 8 14 4 10 12 3 6 8 15 12 12 10 17 12 26 34 23 22 20 16 14 13 8
2 2 3 8 10 6 6 19 13 9 2 11 9 21 20 11 5 10 9 6 10 6 5 6 6 11 14 11 10 14 7 10 11 15 14 22 20 31 17 9 15 19 24 23 22
3 2 1 8 18 14 12 16 21 3 11 11 16 20 15 16 8 16 11 11 8 11 6 3 1 2 4 4 9 13 14 14 12 13 9 16 20 31 22 16 16 17 21 21 19
4 3 3 9 11 12 14 10 19 11 5 5 23 19 8 13 7 7 9 9 8 11 12 9 4 4 3 3 4 8 18 16 16 18 16 18 26 29 24 8 12 15 12 12 14
Wind_Direction
239 236 236 233 240 239 240 242 242 239 240 241 241 232 238 246 252 234 234 233 220 259 280 310 295 279 282 267 217 296 257 248 260 271 271 128 156 129 10 138 123 136 32 96 137
243 237 236 236 236 237 239 242 243 236 242 236 237 231 231 245 253 241 243 239 242 254 298 286 292 273 268 255 232 235 239 238 265 289 310 191 183 151 178 220 208 143 122 136 142
247 242 236 234 235 237 237 235 237 238 236 235 228 227 222 225 264 253 243 235 236 247 249 276 287 299 266 265 210 243 245 276 278 286 4 350 334 241 180 268 221 215 180 166 154
243 242 239 234 235 236 237 233 235 236 228 233 225 217 193 189 223 26 209 223 231 235 234 241 252 248 245 245 243 266 259 281 283 297 44 331 322 315 226 238 295 351 124 164 169
235 237 237 236 233 231 234 234 231 232 228 223 219 211 192 221 222 82 105 212 218 211 209 221 231 243 247 257 252 247 258 273 281 275 297 286 284 264 293 299 327 286 165 190 181
231 231 229 230 231 229 229 231 228 229 229 219 213 206 218 237 224 251 209 188 198 206 208 224 235 258 294 274 262 326 321 284 277 275 258 271 256 263 251 229 267 269 206 223 205
228 227 225 224 226 226 225 225 227 225 223 217 208 202 229 227 263 223 194 188 193 203 197 162 78 237 76 296 5 328 306 276 256 257 239 319 282 252 250 266 242 267 271 231 226
225 226 225 221 222 222 221 220 222 221 221 211 208 213 237 233 240 261 195 202 199 221 236 224 140 77 72 7 305 289 281 266 235 252 239 170 255 278 287 234 242 237 244 253 240
222 222 223 222 220 219 218 215 214 214 209 202 192 215 227 213 211 223 222 203 197 178 237 145 160 177 110 179 223 209 255 250 256 260 254 201 258 237 275 258 259 253 237 244 242
219 219 219 218 220 219 215 207 203 198 184 182 217 183 259 219 203 209 214 214 177 140 132 169 199 197 192 192 227 212 226 239 256 260 256 258 257 254 236 265 274 258 252 244 250
218 218 220 218 215 217 207 178 169 194 181 189 181 213 202 198 202 196 212 184 178 178 202 203 220 211 214 213 230 266 255 254 244 235 246 249 263 260 268 255 248 252 256 245 259
218 213 216 217 212 211 208 208 176 145 180 214 191 211 232 209 178 206 201 189 196 211 196 192 214 230 226 200 224 233 251 259 269 296 303 285 267 260 257 260 247 245 249 250 244
215 209 211 208 213 210 208 210 172 153 165 192 214 203 203 189 201 196 194 198 203 211 200 217 234 219 237 242 234 228 227 247 265 307 290 286 267 265 257 261 256 252 248 249 250
209 205 206 203 200 204 214 219 193 172 199 173 191 216 192 176 229 211 192 181 222 217 212 231 246 237 211 237 231 249 235 247 261 258 263 292 282 276 282 258 237 240 240 244 244
205 202 198 195 190 193 198 205 180 207 213 164 170 155 168 183 111 201 185 211 209 202 191 218 214 207 230 235 231 252 226 245 250 251 263 263 267 269 319 276 268 268 259 236 236
198 198 195 196 203 201 189 176 178 198 210 164 149 173 166 194 184 150 166 221 226 231 221 234 255 225 222 231 230 272 73 331 289 227 244 244 221 267 253 258 272 266 258 234 220
199 201 193 189 199 185 176 164 198 232 76 173 171 167 175 173 170 175 182 191 177 191 223 227 232 240 239 240 224 217 183 232 234 217 247 246 219 241 271 254 259 274 287 293 232
190 191 198 195 189 177 172 221 230 160 147 208 167 167 178 157 180 185 175 190 214 203 186 214 224 215 217 223 210 209 206 230 263 240 263 204 219 242 242 242 248 264 263 259 276
179 184 194 193 185 174 182 216 195 167 131 143 154 170 154 173 157 178 192 197 195 198 194 191 233 177 193 209 213 221 215 229 257 272 283 242 269 285 272 273 235 255 279 258 256
166 192 207 191 182 182 221 213 199 160 138 150 165 182 176 175 163 181 187 204 207 203 208 240 241 202 225 201 214 221 159 183 205 236 234 219 236 250 260 258 262 242 240 240 240
173 209 189 183 175 189 202 221 238 214 152 155 155 190 188 177 183 182 193 192 193 193 209 228 262 149 51 201 210 217 238 236 230 256 245 299 236 224 243 255 44 6 359 291 222
129 224 165 164 181 191 204 172 171 230 162 162 146 172 187 178 179 181 199 193 183 181 195 205 8 229 236 257 247 223 229 229 226 250 234 260 272 260 289 295 297 305 337 304 14
144 221 152 161 186 206 161 136 186 200 176 129 138 183 164 167 174 170 192 193 161 185 181 175 224 164 266 271 222 203 244 252 248 253 252 259 267 205 272 277 289 304 246 258 244
148 151 138 172 190 186 160 173 181 213 182 88 136 140 148 164 129 182 184 188 147 199 171 164 200 205 219 155 160 208 224 227 235 243 252 247 262 273 278 283 294 307 329 334 301
226 118 127 159 193 185 167 171 184 187 161 128 144 159 159 162 135 184 165 150 147 169 163 145 207 233 246 259 278 276 247 220 231 248 256 266 267 273 276 311 314 311 307 305 302
143 140 261 152 169 197 186 182 169 205 155 169 158 164 168 160 165 171 159 174 171 185 185 117 206 138 317 295 277 279 272 262 252 233 245 260 270 268 279 269 281 275 271 273 285
138 118 175 146 161 179 175 173 153 151 23 161 149 148 127 151 142 188 161 144 160 179 186 161 146 140 268 231 227 271 249 249 255 252 243 251 255 275 284 275 255 247 278 299 297